Torna al catalogo

ONEWEB-0386

AttivoComunicazioniPO
NORAD 49312·PAYLOAD·🇬🇧 United Kingdom

Lanciato Oct 14, 2021 da Vostochny Cosmodrome

Loading…

Prossimi Passaggi (prossime 24 ore)

TLE

AggiornatoSource: CelesTrak SupGP

Epoca: Sep 14, 2026, 20:37 UTC

1 49312C 21090AK  26257.85954120  .00010437  00000+0  25702-1 0  2575
2 49312  87.9139 256.5458 0002253  91.6695 305.8187 13.20761917    11

Traccia ONEWEB-0386 in tempo reale con AllMySat

Download on the App Store